timestamp,surface_pressure_avg,surface_temp_avg,battery_voltage,lat,long
2019-08-06 00:00:00+00:00,248.6764,19.13,12.89,47.84626,-54.09684
2019-08-06 00:10:00+00:00,252.3698,19.1,12.81,47.84626,-54.09684
2019-08-06 00:20:00+00:00,256.5648,19.1,12.89,47.84626,-54.09684
2019-08-06 00:30:00+00:00,263.9113,19.1,12.89,47.84626,-54.09684
2019-08-06 00:40:00+00:00,272.6464,19.09,12.89,47.84626,-54.09684
2019-08-06 00:50:00+00:00,282.6647,19.02,12.89,47.84626,-54.09684
2019-08-06 01:00:00+00:00,290.1947,19.0,12.81,47.84626,-54.09684
2019-08-06 01:10:00+00:00,299.008,19.0,12.81,47.84626,-54.09684
2019-08-06 01:20:00+00:00,308.688,19.0,12.81,47.84626,-54.09684
2019-08-06 01:30:00+00:00,318.9647,19.0,12.81,47.84626,-54.09684
2019-08-06 01:40:00+00:00,327.5247,19.08,12.89,47.84626,-54.09684
2019-08-06 01:50:00+00:00,335.1646,19.1,12.89,47.84626,-54.09684
2019-08-06 02:00:00+00:00,342.8663,19.0,12.81,47.84626,-54.09684
2019-08-06 02:10:00+00:00,347.7213,19.05,12.73,47.84626,-54.09684
2019-08-06 02:20:00+00:00,353.3896,19.05,12.81,47.84626,-54.09684
2019-08-06 02:30:00+00:00,356.8879,19.2,12.81,47.84626,-54.09684
2019-08-06 02:40:00+00:00,359.0213,19.2,12.81,47.84626,-54.09684
2019-08-06 02:50:00+00:00,360.8397,19.2,12.81,47.84626,-54.09684
2019-08-06 03:00:00+00:00,362.4279,19.1,12.81,47.84626,-54.09684
2019-08-06 03:10:00+00:00,364.7928,19.1,12.73,47.84626,-54.09684
2019-08-06 03:20:00+00:00,365.1146,19.09,12.81,47.84626,-54.09684
2019-08-06 03:30:00+00:00,363.9096,19.1,12.81,47.84626,-54.09684
2019-08-06 03:40:00+00:00,363.2913,19.1,12.81,47.84626,-54.09684
2019-08-06 03:50:00+00:00,364.0862,19.1,12.81,47.84626,-54.09684
2019-08-06 04:00:00+00:00,362.0613,19.1,12.73,47.84626,-54.09684
2019-08-06 04:10:00+00:00,358.7312,19.1,12.73,47.84626,-54.09684
2019-08-06 04:20:00+00:00,356.4113,19.1,12.81,47.84626,-54.09684
2019-08-06 04:30:00+00:00,353.743,19.1,12.81,47.84626,-54.09684
2019-08-06 04:40:00+00:00,351.0912,19.1,12.81,47.84626,-54.09684
2019-08-06 04:50:00+00:00,349.7662,19.1,12.81,47.84626,-54.09684
2019-08-06 05:00:00+00:00,348.193,19.1,12.73,47.84626,-54.09684
2019-08-06 05:10:00+00:00,340.9547,19.1,12.73,47.84626,-54.09684
2019-08-06 05:20:00+00:00,334.3879,19.09,12.81,47.84626,-54.09684
2019-08-06 05:30:00+00:00,331.6597,19.09,12.81,47.84626,-54.09684
2019-08-06 05:40:00+00:00,324.8647,19.09,12.81,47.84626,-54.09684
2019-08-06 05:50:00+00:00,310.883,19.1,12.81,47.84626,-54.09684
2019-08-06 06:00:00+00:00,301.3313,19.09,12.73,47.84626,-54.09684
2019-08-06 06:10:00+00:00,298.0264,19.09,12.73,47.84626,-54.09684
2019-08-06 06:20:00+00:00,289.5814,19.1,12.81,47.84626,-54.09684
2019-08-06 06:30:00+00:00,274.1631,19.1,12.81,47.84626,-54.09684
2019-08-06 06:40:00+00:00,263.6931,19.1,12.81,47.84626,-54.09684
2019-08-06 06:50:00+00:00,259.2631,19.1,12.81,47.84626,-54.09684
2019-08-06 07:00:00+00:00,248.0131,19.15,12.73,47.84626,-54.09684
2019-08-06 07:10:00+00:00,235.3514,19.1,12.73,47.84626,-54.09684
2019-08-06 07:20:00+00:00,228.8164,19.1,12.81,47.84626,-54.09684
2019-08-06 07:30:00+00:00,222.3248,19.16,12.81,47.84626,-54.09684
2019-08-06 07:40:00+00:00,210.4565,19.17,12.81,47.84626,-54.09684
2019-08-06 07:50:00+00:00,201.2014,19.1,12.81,47.84626,-54.09684
2019-08-06 08:00:00+00:00,199.4898,19.09,12.73,47.84626,-54.09684
2019-08-06 08:10:00+00:00,195.9348,19.1,12.73,47.84626,-54.09684
2019-08-06 08:20:00+00:00,189.8582,19.1,12.81,47.84626,-54.09684
2019-08-06 08:30:00+00:00,188.6615,19.1,12.81,47.84626,-54.09684
2019-08-06 08:40:00+00:00,188.3298,19.1,12.81,47.84626,-54.09684
2019-08-06 08:50:00+00:00,185.9315,19.1,12.81,47.84626,-54.09684
2019-08-06 09:00:00+00:00,185.1531,19.1,12.73,47.84626,-54.09684
2019-08-06 09:10:00+00:00,185.5198,19.1,12.73,47.84626,-54.09684
2019-08-06 09:20:00+00:00,187.5748,19.1,12.81,47.84626,-54.09684
2019-08-06 09:30:00+00:00,189.8731,19.1,12.81,47.84626,-54.09684
2019-08-06 09:40:00+00:00,189.7015,19.1,12.89,47.84626,-54.09684
2019-08-06 09:50:00+00:00,190.9131,19.1,12.97,47.84626,-54.09684
2019-08-06 10:00:00+00:00,195.3481,19.1,12.97,47.84626,-54.09684
2019-08-06 10:10:00+00:00,199.0231,19.1,12.97,47.84626,-54.09684
2019-08-06 10:20:00+00:00,202.3348,19.1,13.13,47.84626,-54.09684
2019-08-06 10:30:00+00:00,206.1198,19.1,13.05,47.84626,-54.09684
2019-08-06 10:40:00+00:00,209.0531,19.1,13.13,47.84626,-54.09684
2019-08-06 10:50:00+00:00,208.8865,19.08,13.13,47.84626,-54.09684
2019-08-06 11:00:00+00:00,210.8148,19.07,13.05,47.84626,-54.09684
2019-08-06 11:10:00+00:00,215.6948,19.08,13.05,47.84626,-54.09684
2019-08-06 11:20:00+00:00,219.3014,19.1,13.13,47.84626,-54.09684
2019-08-06 11:30:00+00:00,220.7414,19.1,13.13,47.84626,-54.09684
2019-08-06 11:40:00+00:00,224.8198,19.1,13.29,47.84626,-54.09684
2019-08-06 11:50:00+00:00,231.8081,19.07,13.29,47.84626,-54.09684
2019-08-06 12:00:00+00:00,237.1547,19.09,13.29,47.84626,-54.09684
2019-08-06 12:10:00+00:00,240.3731,19.09,13.37,47.84626,-54.09684
2019-08-06 12:20:00+00:00,242.9198,19.08,13.6,47.84626,-54.09684
2019-08-06 12:30:00+00:00,248.3414,19.06,13.6,47.84626,-54.09684
2019-08-06 12:40:00+00:00,253.6714,19.08,13.84,47.84626,-54.09684
2019-08-06 12:50:00+00:00,260.1098,19.0,13.76,47.84626,-54.09684
2019-08-06 13:00:00+00:00,265.9831,19.0,13.76,47.84626,-54.09684
2019-08-06 13:10:00+00:00,275.0881,19.0,13.76,47.84626,-54.09684
2019-08-06 13:20:00+00:00,285.1747,18.7,13.92,47.84626,-54.09684
2019-08-06 13:30:00+00:00,292.0563,18.6,13.92,47.84626,-54.09684
2019-08-06 13:40:00+00:00,296.3864,18.6,13.92,47.84626,-54.09684
2019-08-06 13:50:00+00:00,305.7797,18.6,14.16,47.84626,-54.09684
2019-08-06 14:00:00+00:00,315.6797,18.4,14.24,47.84626,-54.09684
2019-08-06 14:10:00+00:00,320.918,18.4,14.0,47.84626,-54.09684
2019-08-06 14:20:00+00:00,324.933,18.28,15.99,47.84626,-54.09684
2019-08-06 14:30:00+00:00,333.1964,18.1,14.32,47.84626,-54.09684
2019-08-06 14:40:00+00:00,339.0264,18.09,14.4,47.84626,-54.09684
2019-08-06 14:50:00+00:00,338.593,18.2,14.64,47.84626,-54.09684
2019-08-06 15:00:00+00:00,341.8029,18.15,14.24,47.84626,-54.09684
2019-08-06 15:10:00+00:00,348.7846,18.24,14.4,47.84626,-54.09684
2019-08-06 15:20:00+00:00,350.323,18.59,14.48,47.84626,-54.09684
2019-08-06 15:30:00+00:00,347.548,18.44,14.32,47.84626,-54.09684
2019-08-06 15:40:00+00:00,347.328,18.6,14.4,47.84626,-54.09684
2019-08-06 15:50:00+00:00,350.5579,19.0,14.32,47.84626,-54.09684
2019-08-06 16:00:00+00:00,350.1429,17.71,14.16,47.84626,-54.09684
2019-08-06 16:10:00+00:00,348.5197,17.34,14.08,47.84626,-54.09684
2019-08-06 16:20:00+00:00,351.1663,17.5,14.4,47.84626,-54.09684
2019-08-06 16:30:00+00:00,351.7729,17.5,14.56,47.84626,-54.09684
2019-08-06 16:40:00+00:00,349.5546,17.43,14.48,47.84626,-54.09684
2019-08-06 16:50:00+00:00,346.9146,17.8,14.4,47.84626,-54.09684
2019-08-06 17:00:00+00:00,345.6246,17.85,14.4,47.84626,-54.09684
2019-08-06 17:10:00+00:00,342.158,17.99,14.32,47.84626,-54.09684
2019-08-06 17:20:00+00:00,337.8362,17.9,14.4,47.84626,-54.09684
2019-08-06 17:30:00+00:00,333.9563,17.95,14.24,47.84626,-54.09684
2019-08-06 17:40:00+00:00,332.6746,18.1,14.16,47.84626,-54.09684
2019-08-06 17:50:00+00:00,328.7297,18.1,14.16,47.84626,-54.09684
2019-08-06 18:00:00+00:00,324.7546,17.89,14.0,47.84626,-54.09684
2019-08-06 18:10:00+00:00,316.4531,17.6,14.0,47.84626,-54.09684
2019-08-06 18:20:00+00:00,306.6413,17.7,14.24,47.84626,-54.09684
2019-08-06 18:30:00+00:00,298.2313,18.09,14.24,47.84626,-54.09684
2019-08-06 18:40:00+00:00,290.963,18.05,14.24,47.84626,-54.09684
2019-08-06 18:50:00+00:00,280.0397,18.48,14.16,47.84626,-54.09684
2019-08-06 19:00:00+00:00,267.5748,19.0,14.08,47.84626,-54.09684
2019-08-06 19:10:00+00:00,256.8648,18.73,14.0,47.84626,-54.09684
2019-08-06 19:20:00+00:00,248.3131,19.03,14.08,47.84626,-54.09684
2019-08-06 19:30:00+00:00,240.5548,19.4,14.08,47.84626,-54.09684
2019-08-06 19:40:00+00:00,233.4848,19.4,14.08,47.84626,-54.09684
2019-08-06 19:50:00+00:00,223.6631,19.2,14.08,47.84626,-54.09684
2019-08-06 20:00:00+00:00,215.8548,19.4,14.0,47.84626,-54.09684
2019-08-06 20:10:00+00:00,209.8964,19.47,13.84,47.84626,-54.09684
2019-08-06 20:20:00+00:00,200.6514,19.3,13.92,47.84626,-54.09684
2019-08-06 20:30:00+00:00,192.5348,19.3,13.92,47.84626,-54.09684
2019-08-06 20:40:00+00:00,191.7148,19.3,13.92,47.84626,-54.09684
2019-08-06 20:50:00+00:00,189.9281,19.2,13.92,47.84626,-54.09684
2019-08-06 21:00:00+00:00,185.4348,19.2,13.84,47.84626,-54.09684
2019-08-06 21:10:00+00:00,185.1131,19.17,13.68,47.84626,-54.09684
2019-08-06 21:20:00+00:00,187.5531,19.12,13.68,47.84626,-54.09684
2019-08-06 21:30:00+00:00,186.0915,19.2,13.68,47.84626,-54.09684
2019-08-06 21:40:00+00:00,187.6564,19.3,13.76,47.84626,-54.09684
2019-08-06 21:50:00+00:00,191.4015,19.37,13.76,47.84626,-54.09684
2019-08-06 22:00:00+00:00,196.4114,19.7,13.68,47.84626,-54.09684
2019-08-06 22:10:00+00:00,198.0665,19.52,13.53,47.84626,-54.09684
2019-08-06 22:20:00+00:00,201.1115,19.45,13.53,47.84626,-54.09684
2019-08-06 22:30:00+00:00,207.1548,19.46,13.44,47.84626,-54.09684
2019-08-06 22:40:00+00:00,212.6898,19.4,13.44,47.84626,-54.09684
2019-08-06 22:50:00+00:00,215.1797,19.3,13.37,47.84626,-54.09684
2019-08-06 23:00:00+00:00,219.7581,19.17,13.29,47.84626,-54.09684
2019-08-06 23:10:00+00:00,223.4931,19.27,13.13,47.84626,-54.09684
2019-08-06 23:20:00+00:00,222.6397,18.63,13.13,47.84626,-54.09684
2019-08-06 23:30:00+00:00,222.9881,17.2,13.13,47.84626,-54.09684
2019-08-06 23:40:00+00:00,226.1281,17.08,13.13,47.84626,-54.09684
2019-08-06 23:50:00+00:00,228.9031,17.44,13.05,47.84626,-54.09684
